GW2021 Weather Reports


time (UTC)temp
C
wind
direction
speed
KPH
gust
KPH
rain 1hr
cm
rain 24hr
cm
rain mn
cm
humidity
%
barometer
mb
20260504202015 21 157 0.0 0.0 0.00 0.00 0.00 43 1009.0
20260504201013 21 157 0.0 0.0 0.00 0.00 0.00 43 1009.2
20260504200015 21 157 0.0 0.0 0.00 0.00 0.00 43 1009.4
20260504195113 21 157 0.0 0.0 0.00 0.00 0.00 44 1009.6
20260504194213 21 157 0.0 0.0 0.00 0.00 0.00 45 1009.7
20260504193215 20 157 0.0 0.0 0.00 0.00 0.00 42 1009.8
20260504191413 21 157 0.0 0.0 0.00 0.00 0.00 43 1010.3
20260504190414 21 157 0.0 0.0 0.00 0.00 0.00 43 1010.3
20260504185413 20 157 0.0 0.0 0.00 0.00 0.00 43 1010.6
20260504183412 20 157 0.0 0.0 0.00 0.00 0.00 43 1010.9
20260504182512 20 157 0.0 0.0 0.00 0.00 0.00 44 1011.0
20260504181512 20 157 0.0 0.0 0.00 0.00 0.00 43 1011.1
20260504180513 20 157 0.0 0.0 0.00 0.00 0.00 44 1011.2
20260504175515 20 157 0.0 0.0 0.00 0.00 0.00 46 1011.2
20260504174613 20 157 0.0 0.0 0.00 0.00 0.00 46 1011.4
20260504173615 20 157 0.0 0.0 0.00 0.00 0.00 44 1011.4
20260504171712 20 157 0.0 0.0 0.00 0.00 0.00 45 1011.7
20260504170713 19 157 0.0 0.0 0.00 0.00 0.00 42 1011.8
20260504150814 18 157 0.0 0.0 0.00 0.00 0.00 43 1013.4
20260504140915 16 157 0.0 0.0 0.00 0.00 0.00 44 1013.6
20260504130112 13 157 0.0 0.0 0.00 0.00 0.00 50 1013.9
20260504120316 8 157 0.0 0.0 0.00 0.00 0.00 65 1014.0
20260504110414 5 157 0.0 0.0 0.00 0.00 0.00 71 1013.8
20260504100516 4 157 0.0 0.0 0.00 0.00 0.00 69 1013.9
20260504081913 6 157 0.0 0.0 0.00 0.00 0.00 61 1014.4
20260504080913 6 157 0.0 0.0 0.00 0.00 0.00 61 1014.5
20260504070313 6 157 0.0 0.0 0.00 0.00 0.00 61 1014.5
20260504050612 7 157 0.0 0.0 0.00 0.00 0.00 57 1014.7
20260504045615 7 157 0.0 0.0 0.00 0.00 0.00 57 1014.8
20260504043614 7 157 0.0 0.0 0.00 0.00 0.00 56 1014.8
20260504042613 8 157 0.0 0.0 0.00 0.00 0.00 54 1014.8
20260504040612 8 157 0.0 0.0 0.00 0.00 0.00 52 1015.0
20260504035624 8 157 0.0 0.0 0.00 0.00 0.00 52 1014.7
20260504034622 8 157 0.0 0.0 0.00 0.00 0.00 52 1014.7
20260504033623 8 157 0.0 0.0 0.00 0.00 0.00 53 1014.7
20260504032624 8 157 0.0 0.0 0.00 0.00 0.00 53 1014.7
20260504031623 8 157 0.0 0.0 0.00 0.00 0.00 54 1014.6
20260504030624 8 157 0.0 0.0 0.00 0.00 0.00 53 1014.5
20260504025622 8 157 0.0 0.0 0.00 0.00 0.00 55 1014.5
20260504023623 8 157 0.0 0.0 0.00 0.00 0.00 54 1014.4
20260504022624 8 157 0.0 0.0 0.00 0.00 0.00 54 1014.5
20260504021621 8 157 0.0 0.0 0.00 0.00 0.00 55 1014.4
20260504020622 8 157 0.0 0.0 0.00 0.00 0.00 54 1014.4
20260504015622 8 157 0.0 0.0 0.00 0.00 0.00 54 1014.4
20260504013723 9 157 0.0 0.0 0.00 0.00 0.00 56 1014.3
20260504012723 9 157 0.0 0.0 0.00 0.00 0.00 55 1014.3
20260504011725 10 157 0.0 0.0 0.00 0.00 0.00 53 1014.2
20260504010722 10 157 0.0 0.0 0.00 0.00 0.00 52 1014.3
20260504005722 10 157 0.0 0.0 0.00 0.00 0.00 51 1014.2
20260504003823 11 157 0.0 0.0 0.00 0.00 0.00 50 1014.1
20260504002825 11 157 0.0 0.0 0.00 0.00 0.00 49 1013.9
20260504001922 11 157 0.0 0.0 0.00 0.00 0.00 47 1013.9
20260504000922 12 157 0.0 0.0 0.00 0.00 0.00 45 1013.8
20260503235923 12 157 0.0 0.0 0.00 0.00 0.00 42 1013.8
20260503235021 12 157 0.0 0.0 0.00 0.00 0.00 40 1013.7
20260503234023 13 157 0.0 0.0 0.00 0.00 0.00 39 1013.4
20260503233022 13 157 0.0 0.0 0.00 0.00 0.00 38 1013.4
20260503232022 13 157 0.0 0.0 0.00 0.00 0.00 37 1013.2
20260503231022 13 157 0.0 0.0 0.00 0.00 0.00 37 1013.3
20260503230022 13 157 0.0 0.0 0.00 0.00 0.00 36 1013.5
20260503225023 13 157 0.0 0.0 0.00 0.00 0.00 36 1013.5
20260503224022 14 157 0.0 0.0 0.00 0.00 0.00 35 1013.3
20260503223023 14 157 0.0 0.0 0.00 0.00 0.00 35 1013.4
20260503222024 14 157 0.0 0.0 0.00 0.00 0.00 35 1013.5
20260503221022 14 157 0.0 0.0 0.00 0.00 0.00 35 1013.4
20260503220023 14 157 0.0 0.0 0.00 0.00 0.00 35 1013.4
20260503215022 14 157 0.0 0.0 0.00 0.00 0.00 35 1013.5
20260503214023 14 157 0.0 0.0 0.00 0.00 0.00 34 1013.6
20260503213022 15 157 0.0 0.0 0.00 0.00 0.00 36 1013.5
20260503212023 15 157 0.0 0.0 0.00 0.00 0.00 35 1013.4
20260503211023 14 157 0.0 0.0 0.00 0.00 0.00 36 1013.4
20260503205122 14 157 0.0 0.0 0.00 0.00 0.00 35 1013.3
20260503204123 14 157 0.0 0.0 0.00 0.00 0.00 35 1013.4
20260503203122 14 157 0.0 0.0 0.00 0.00 0.00 35 1013.4